Flag for U.S.A. Weather past 2 weeks in Rancho Cucamonga, California, U.S.A.

Now
59 °F

Clear.


Feels Like: 58 °F
Forecast: 54 / 74 °F
Wind: 7 mph from West

Location: Ontario International Airport

Current Time: May 3, 2015 at 11:01:46 PM

Latest Report: May 3, 2015 at 9:53 PM


Visibility: 10 mi

Pressure: 29.87 "Hg

Humidity: 67%

Dew point: 48 °F

Location of Rancho CucamongaLocation

Historic Weather in Rancho Cucamonga — Graph

°F

Rancho Cucamonga temperature yesterday

Maximum temperature yesterday: 88 °F (at 12:53 PM)
Minimum temperature yesterday: 60 °F (at 11:53 PM)
Average temperature yesterday: 74 °F

Past Weeks' High & Low Weather Summary

 TemperatureHumidityPressure
High94 °F (Apr 29, 2:53 PM)97% (Apr 25, 6:04 PM)29.99 "Hg (Apr 25, 6:04 PM)
Low50 °F (Apr 26, 6:00 AM)9% (Apr 27, 11:53 AM)29.75 "Hg (May 2, 4:53 PM)
Average67 °F49%29.87 "Hg
* Reported Apr 18 9:53 PM — May 3 9:53 PM, Rancho Cucamonga, Weather by CustomWeather, © 2015

Note: Actual official high and low records may vary slightly from our data, if they occured in-between our weather recording intervals... More about our weather records

Advertising

Rancho Cucamonga weather history for previous 24 hours

 ConditionsComfort  
Time TempWeatherWind HumidityBarometerVisibility
9:53 PM
Sun, May 3
59 °FClear.7 mph67%29.87 "Hg10 mi
8:53 PM61 °FClear.8 mph67%29.85 "Hg10 mi
7:53 PM63 °FSunny.9 mph63%29.83 "Hg10 mi
6:53 PM68 °FSunny.14 mph55%29.80 "Hg10 mi
5:53 PM71 °FSunny.15 mph49%29.79 "Hg10 mi
4:53 PM75 °FPassing clouds.17 mph43%29.80 "Hg10 mi
3:53 PM76 °FPassing clouds.15 mph42%29.80 "Hg10 mi
2:53 PM78 °FPassing clouds.14 mph37%29.83 "Hg10 mi
1:53 PM77 °FPassing clouds.9 mph37%29.85 "Hg10 mi
12:53 PM75 °FPassing clouds.12 mph42%29.88 "Hg10 mi
11:53 AM71 °FSunny.6 mph47%29.90 "Hg10 mi
10:53 AM66 °FSunny.8 mph59%29.90 "Hg9 mi
9:53 AM63 °FScattered clouds.8 mph68%29.90 "Hg9 mi
8:53 AM59 °FOvercast.3 mph78%29.90 "Hg7 mi
7:53 AM58 °FOvercast.3 mph84%29.89 "Hg6 mi
6:53 AM57 °FFog.3 mph87%29.86 "Hg6 mi
5:53 AM56 °FPartly cloudy.3 mph87%29.85 "Hg8 mi
4:53 AM55 °FPassing clouds.3 mph90%29.85 "Hg8 mi
3:53 AM56 °FClear.5 mph87%29.85 "Hg8 mi
2:53 AM56 °FClear.5 mph87%29.85 "Hg9 mi
1:53 AM57 °FClear.7 mph83%29.84 "Hg9 mi
12:53 AM58 °FClear.7 mph84%29.86 "Hg10 mi
11:53 PM
Sat, May 2
60 °FClear.9 mph75%29.85 "Hg10 mi
Weather by CustomWeather, © 2015

See weather overviewHow to use our weather pages